{"data":{"norad_id":55804,"intl_designator":"2023-029J","name":"ONEWEB-0640","alt_names":[],"object_type":"PAYLOAD","status":"ACTIVE","operator":null,"country":"UK","launch_date":"2023-03-09","launch_site_code":"AFETR","launch_vehicle":null,"mission":null,"orbit_class":"UNKNOWN","rcs_meters":null,"size_class":null,"mass_kg":null,"dimensions":null,"purposes":["comms"],"wikipedia_slug":null,"has_3d_model":false,"image_url":null,"decayed_at":null,"tle_current":{"epoch":"2026-05-24T22:59:57.100128Z","epoch_age_seconds":81684,"freshness":"FRESH","line1":"1 55804U 23029J   26144.95829977  .00000022  00000+0  23653-4 0  9997","line2":"2 55804  87.8933 294.3776 0002052  77.4191 282.7168 13.14501062156366","mean_motion":13.14501062,"eccentricity":0.0002052,"inclination_deg":87.8933,"raan_deg":294.3776,"arg_perigee_deg":77.4191,"mean_anomaly_deg":282.7168,"bstar":2.3653e-5,"rev_number":15636,"period_min":109.54726790476,"perigee_km":1204.2408162286,"apogee_km":1207.3532627584,"semimajor_km":7583.9340394935,"source":"CELESTRAK","updated_at":"2026-05-25T13:38:22.690311Z"}}}